When you browse on this site, cookies collect data to enhance your experience and personalize the content and advertising you see.
Visit our Privacy Policy to learn more. By continuing to use the site, you agree to this use of cookies and data.
  • In France
  • List of Countries
  • For 7 days
  • Water Temperature
  • Satellite Maps
  • Weather Map
  • Weather Widgets
  • user-avatar
    Login

    Hourly Weather Maksimovka

    Today, 17 February, Sunday

    Time Temperature Precipitation Wind Pressure Humidity
    00:00 -4°C° 0 mm 3 mps 742 mmHg 96%
    01:00 -4°C° 0 mm 3 mps 741 mmHg 95%
    02:00 -3°C° 0 mm 4 mps 740 mmHg 94%
    03:00 -2°C° 0 mm 5 mps 740 mmHg 93%
    04:00 -2°C° 0 mm 5 mps 739 mmHg 92%
    05:00 -4°C° 0 mm 5 mps 738 mmHg 92%
    06:00 -4°C° 0 mm 5 mps 737 mmHg 92%
    07:00 -5°C° 0 mm 6 mps 736 mmHg 92%
    08:00 -5°C° 0 mm 6 mps 735 mmHg 91%
    09:00 -6°C° 0 mm 6 mps 735 mmHg 90%
    10:00 -5°C° 0 mm 6 mps 734 mmHg 91%
    11:00 -4°C° 0 mm 6 mps 734 mmHg 91%
    12:00 -2°C° 0 mm 6 mps 734 mmHg 92%
    13:00 -2°C° 0.1 mm 7 mps 733 mmHg 92%
    14:00 -2°C° 0.1 mm 7 mps 733 mmHg 92%
    15:00 -2°C° 0.1 mm 7 mps 732 mmHg 92%
    16:00 -2°C° 0.1 mm 7 mps 732 mmHg 89%
    17:00 -2°C° 0.1 mm 7 mps 732 mmHg 85%
    18:00 -2°C° 0.1 mm 7 mps 732 mmHg 82%
    19:00 -3°C° 0.1 mm 7 mps 732 mmHg 82%
    20:00 -3°C° 0.1 mm 7 mps 732 mmHg 82%
    21:00 -4°C° 0.1 mm 7 mps 732 mmHg 81%
    22:00 -5°C° 0 mm 8 mps 733 mmHg 82%
    23:00 -6°C° 0 mm 8 mps 733 mmHg 82%

    Tomorrow, 18 February, Monday

    Time Temperature Precipitation Wind Pressure Humidity
    00:00 -6°C° 0 mm 8 mps 733 mmHg 82%
    01:00 -6°C° 0 mm 8 mps 733 mmHg 82%
    02:00 -6°C° 0 mm 8 mps 734 mmHg 82%
    03:00 -6°C° 0 mm 8 mps 734 mmHg 82%
    04:00 -7°C° 0 mm 8 mps 735 mmHg 81%
    05:00 -8°C° 0 mm 9 mps 736 mmHg 81%
    06:00 -8°C° 0 mm 9 mps 736 mmHg 80%
    07:00 -8°C° 0.1 mm 9 mps 737 mmHg 80%
    08:00 -9°C° 0.1 mm 9 mps 738 mmHg 80%
    09:00 -9°C° 0.1 mm 9 mps 739 mmHg 79%
    10:00 -9°C° 0.1 mm 9 mps 739 mmHg 78%
    11:00 -9°C° 0.1 mm 9 mps 740 mmHg 78%
    12:00 -9°C° 0.1 mm 9 mps 741 mmHg 77%
    13:00 -9°C° 0.1 mm 9 mps 741 mmHg 77%
    14:00 -8°C° 0.1 mm 8 mps 742 mmHg 76%
    15:00 -8°C° 0.1 mm 8 mps 743 mmHg 76%
    16:00 -10°C° 0 mm 8 mps 744 mmHg 77%
    17:00 -11°C° 0 mm 7 mps 744 mmHg 78%
    18:00 -11°C° 0 mm 6 mps 745 mmHg 79%
    19:00 -11°C° 0 mm 6 mps 746 mmHg 80%
    20:00 -12°C° 0 mm 6 mps 747 mmHg 81%
    21:00 -12°C° 0 mm 6 mps 748 mmHg 82%
    22:00 -14°C° 0 mm 6 mps 748 mmHg 84%
    23:00 -13°C° 0 mm 5 mps 749 mmHg 85%

    Day after tomorrow, 19 February, Tuesday

    Time Temperature Precipitation Wind Pressure Humidity
    00:00 -14°C° 0 mm 5 mps 750 mmHg 86%
    01:00 -14°C° 0 mm 4 mps 750 mmHg 88%
    02:00 -15°C° 0 mm 4 mps 750 mmHg 90%
    03:00 -16°C° 0 mm 4 mps 751 mmHg 91%
    04:00 -15°C° 0 mm 3 mps 751 mmHg 92%
    05:00 -16°C° 0 mm 3 mps 751 mmHg 93%
    06:00 -16°C° 0 mm 3 mps 752 mmHg 94%
    07:00 -15°C° 0 mm 2 mps 752 mmHg 94%
    08:00 -15°C° 0 mm 2 mps 752 mmHg 93%
    09:00 -14°C° 0 mm 2 mps 753 mmHg 93%
    10:00 -13°C° 0 mm 2 mps 753 mmHg 91%
    11:00 -13°C° 0 mm 3 mps 752 mmHg 89%
    12:00 -10°C° 0 mm 3 mps 752 mmHg 88%
    13:00 -11°C° 0 mm 4 mps 752 mmHg 87%
    14:00 -10°C° 0 mm 4 mps 751 mmHg 86%
    15:00 -11°C° 0 mm 5 mps 751 mmHg 85%
    16:00 -11°C° 0 mm 5 mps 750 mmHg 85%
    17:00 -12°C° 0 mm 5 mps 750 mmHg 85%
    18:00 -12°C° 0 mm 5 mps 750 mmHg 85%
    19:00 -12°C° 0 mm 5 mps 749 mmHg 84%
    20:00 -12°C° 0 mm 6 mps 749 mmHg 84%
    21:00 -12°C° 0 mm 6 mps 748 mmHg 83%
    22:00 -12°C° 0 mm 6 mps 748 mmHg 82%
    23:00 -12°C° 0 mm 6 mps 747 mmHg 81%

    20 February, Wednesday

    Time Temperature Precipitation Wind Pressure Humidity
    00:00 -11°C° 0 mm 6 mps 747 mmHg 81%
    01:00 -11°C° 0 mm 6 mps 747 mmHg 80%
    02:00 -11°C° 0 mm 6 mps 746 mmHg 80%
    03:00 -12°C° 0 mm 6 mps 746 mmHg 79%
    04:00 -12°C° 0 mm 6 mps 745 mmHg 80%
    05:00 -12°C° 0 mm 6 mps 745 mmHg 81%
    06:00 -12°C° 0 mm 6 mps 744 mmHg 81%
    07:00 -13°C° 0 mm 7 mps 744 mmHg 82%
    08:00 -12°C° 0 mm 7 mps 743 mmHg 82%
    09:00 -12°C° 0 mm 7 mps 743 mmHg 83%
    10:00 -11°C° 0 mm 7 mps 743 mmHg 84%
    11:00 -9°C° 0 mm 7 mps 742 mmHg 85%
    12:00 -8°C° 0 mm 7 mps 742 mmHg 86%
    13:00 -7°C° 0.1 mm 7 mps 741 mmHg 86%
    14:00 -6°C° 0.1 mm 7 mps 741 mmHg 87%
    15:00 -6°C° 0.1 mm 7 mps 740 mmHg 87%
    16:00 -6°C° 0.2 mm 7 mps 740 mmHg 89%
    17:00 -5°C° 0.2 mm 6 mps 740 mmHg 90%
    18:00 -4°C° 0.2 mm 6 mps 740 mmHg 91%
    19:00 -4°C° 0.1 mm 6 mps 739 mmHg 91%
    20:00 -4°C° 0.1 mm 6 mps 739 mmHg 91%
    21:00 -4°C° 0.1 mm 6 mps 739 mmHg 92%
    22:00 -4°C° 0.1 mm 6 mps 738 mmHg 91%
    23:00 -3°C° 0.1 mm 6 mps 737 mmHg 91%

    21 February, Thursday

    Time Temperature Precipitation Wind Pressure Humidity
    00:00 -3°C° 0.1 mm 6 mps 737 mmHg 91%
    01:00 -3°C° 0.1 mm 6 mps 736 mmHg 91%
    02:00 -3°C° 0.1 mm 6 mps 736 mmHg 90%
    03:00 -3°C° 0.1 mm 6 mps 736 mmHg 90%
    04:00 -3°C° 0.3 mm 6 mps 735 mmHg 89%
    05:00 -2°C° 0.3 mm 5 mps 735 mmHg 89%
    06:00 -2°C° 0.3 mm 5 mps 735 mmHg 88%
    07:00 -5°C° 0 mm 5 mps 735 mmHg 89%
    08:00 -6°C° 0 mm 5 mps 735 mmHg 90%
    09:00 -7°C° 0 mm 5 mps 735 mmHg 90%
    10:00 -7°C° 0 mm 5 mps 735 mmHg 89%
    11:00 -6°C° 0 mm 5 mps 735 mmHg 88%
    12:00 -6°C° 0 mm 5 mps 735 mmHg 87%
    13:00 -6°C° 0.1 mm 5 mps 736 mmHg 88%
    14:00 -6°C° 0.1 mm 5 mps 736 mmHg 88%
    15:00 -5°C° 0.1 mm 5 mps 736 mmHg 88%
    16:00 -6°C° 0.2 mm 5 mps 736 mmHg 89%
    17:00 -6°C° 0.2 mm 5 mps 737 mmHg 90%
    18:00 -7°C° 0.2 mm 5 mps 737 mmHg 90%
    19:00 -7°C° 0.1 mm 5 mps 738 mmHg 90%
    20:00 -7°C° 0.1 mm 5 mps 738 mmHg 90%
    21:00 -7°C° 0.1 mm 5 mps 739 mmHg 90%
    22:00 -9°C° 0 mm 6 mps 739 mmHg 89%
    23:00 -9°C° 0 mm 6 mps 739 mmHg 88%

    22 February, Friday

    Time Temperature Precipitation Wind Pressure Humidity
    00:00 -10°C° 0 mm 6 mps 740 mmHg 87%
    01:00 -11°C° 0.1 mm 6 mps 740 mmHg 88%
    02:00 -11°C° 0.1 mm 6 mps 741 mmHg 88%
    03:00 -12°C° 0.1 mm 6 mps 741 mmHg 88%
    04:00 -12°C° 0.1 mm 6 mps 742 mmHg 88%
    05:00 -12°C° 0.1 mm 6 mps 742 mmHg 88%
    06:00 -14°C° 0.1 mm 6 mps 742 mmHg 87%
    07:00 -14°C° 0 mm 6 mps 743 mmHg 87%
    08:00 -14°C° 0 mm 6 mps 743 mmHg 87%
    09:00 -15°C° 0 mm 6 mps 744 mmHg 86%
    10:00 -14°C° 0.1 mm 6 mps 744 mmHg 85%
    11:00 -14°C° 0.1 mm 6 mps 744 mmHg 83%
    12:00 -12°C° 0.1 mm 6 mps 745 mmHg 82%
    13:00 -14°C° 0.1 mm 6 mps 745 mmHg 83%
    14:00 -14°C° 0.1 mm 6 mps 745 mmHg 83%
    15:00 -14°C° 0.1 mm 6 mps 745 mmHg 84%
    16:00 -14°C° 0.1 mm 6 mps 746 mmHg 85%
    17:00 -14°C° 0.1 mm 6 mps 746 mmHg 86%
    18:00 -14°C° 0.1 mm 5 mps 747 mmHg 86%
    19:00 -15°C° 0 mm 6 mps 747 mmHg 84%
    20:00 -15°C° 0 mm 6 mps 748 mmHg 82%
    21:00 -16°C° 0 mm 6 mps 748 mmHg 80%
    22:00 -16°C° 0 mm 6 mps 749 mmHg 82%
    23:00 -17°C° 0 mm 6 mps 749 mmHg 83%
    Show more